DW8122 Weather Reports


time (UTC)temp
F
wind
direction
speed
knots
gust
knots
rain 1hr
in
rain 24hr
in
rain mn
in
humidity
%
barometer
mb
20260504081956 46 319 0.0 0.9 0.00 0.00 0.00 54 1012.3
20260504081454 46 310 0.9 1.7 0.00 0.00 0.00 53 1012.5
20260504080949 46 305 0.9 0.9 0.00 0.00 0.00 55 1012.4
20260504080446 45 309 0.9 0.9 0.00 0.00 0.00 56 1012.4
20260504050259 49 278 1.7 1.7 0.00 0.00 0.00 48 1012.5
20260504045756 49 276 1.7 2.6 0.00 0.00 0.00 48 1012.7
20260504045256 50 271 2.6 2.6 0.00 0.00 0.00 48 1012.8
20260504044754 50 281 1.7 2.6 0.00 0.00 0.00 47 1012.7
20260504044251 49 287 1.7 2.6 0.00 0.00 0.00 47 1012.7
20260504043748 49 275 2.6 2.6 0.00 0.00 0.00 49 1012.4
20260504043245 49 286 1.7 1.7 0.00 0.00 0.00 49 1012.7
20260504042743 49 282 1.7 2.6 0.00 0.00 0.00 50 1012.7
20260504042239 48 312 0.9 1.7 0.00 0.00 0.00 51 1012.3
20260504041736 49 329 0.9 0.9 0.00 0.00 0.00 55 1012.2
20260504041232 49 310 1.7 2.6 0.00 0.00 0.00 47 1012.2
20260504040728 50 323 0.0 1.7 0.00 0.00 0.00 50 1012.3
20260504040225 50 290 0.9 1.7 0.00 0.00 0.00 48 1012.3
20260504035721 50 304 1.7 1.7 0.00 0.00 0.00 46 1012.2
20260504035219 51 288 1.7 1.7 0.00 0.00 0.00 46 1012.5
20260504034716 50 305 1.7 1.7 0.00 0.00 0.00 45 1012.3
20260504034213 49 290 1.7 2.6 0.00 0.00 0.00 47 1012.2
20260504033711 50 282 1.7 1.7 0.00 0.00 0.00 49 1012.3
20260504033208 51 314 1.7 1.7 0.00 0.00 0.00 48 1012.4
20260504032705 51 281 1.7 2.6 0.00 0.00 0.00 45 1012.3
20260504032202 50 273 1.7 2.6 0.00 0.00 0.00 46 1012.1
20260504031659 50 303 1.7 2.6 0.00 0.00 0.00 47 1012.4
20260504031155 50 288 0.9 1.7 0.00 0.00 0.00 49 1011.9
20260504030652 50 300 0.9 1.7 0.00 0.00 0.00 47 1012.2
20260504030149 51 311 1.7 1.7 0.00 0.00 0.00 46 1012.0
20260504025645 51 292 1.7 1.7 0.00 0.00 0.00 45 1012.1
20260504025142 50 280 1.7 2.6 0.00 0.00 0.00 46 1012.0
20260504024640 50 292 1.7 1.7 0.00 0.00 0.00 47 1011.9
20260504024136 51 305 0.0 0.9 0.00 0.00 0.00 50 1012.0
20260504023633 51 286 1.7 1.7 0.00 0.00 0.00 45 1011.9
20260504023129 51 272 1.7 1.7 0.00 0.00 0.00 45 1012.0
20260504022625 51 276 1.7 1.7 0.00 0.00 0.00 45 1012.2
20260504022121 51 286 1.7 2.6 0.00 0.00 0.00 46 1012.1
20260504021620 50 270 1.7 2.6 0.00 0.00 0.00 47 1012.1
20260504021116 47 315 1.7 2.6 0.00 0.00 0.00 51 1012.0
20260504020613 48 333 0.9 0.9 0.00 0.00 0.00 56 1012.0
20260504020109 49 334 0.9 0.9 0.00 0.00 0.00 52 1012.0
20260504015606 49 328 0.9 1.7 0.00 0.00 0.00 53 1012.1
20260504015101 47 306 0.9 1.7 0.00 0.00 0.00 55 1012.2
20260504014558 45 301 0.0 0.9 0.00 0.00 0.00 64 1012.2
20260504014055 45 340 0.0 0.0 0.00 0.00 0.00 63 1012.1
20260504013553 45 340 0.0 0.0 0.00 0.00 0.00 63 1011.9
20260504013049 46 339 0.0 0.0 0.00 0.00 0.00 62 1011.9
20260504012547 46 339 0.0 0.0 0.00 0.00 0.00 60 1011.8
20260504012045 46 333 0.0 0.0 0.00 0.00 0.00 60 1011.8
20260504011541 47 338 0.0 0.0 0.00 0.00 0.00 59 1011.7
20260504011037 48 339 0.0 0.0 0.00 0.00 0.00 59 1011.8
20260504010533 49 330 0.0 0.0 0.00 0.00 0.00 58 1012.0
20260504010029 50 325 0.0 0.0 0.00 0.00 0.00 53 1011.7
20260504005526 51 329 0.0 0.0 0.00 0.00 0.00 52 1011.7
20260504005024 52 330 0.0 0.0 0.00 0.00 0.00 49 1011.5
20260504004521 52 330 0.0 0.9 0.00 0.00 0.00 46 1011.6
20260504004018 53 329 0.9 1.7 0.00 0.00 0.00 46 1011.6
20260504003514 53 299 0.9 1.7 0.00 0.00 0.00 42 1011.6
20260504003011 53 297 0.9 1.7 0.00 0.00 0.00 42 1011.2
20260504002508 54 308 0.9 0.9 0.00 0.00 0.00 41 1011.3
20260504002006 54 320 0.9 0.9 0.00 0.00 0.00 40 1011.3
20260504001503 55 326 0.0 0.9 0.00 0.00 0.00 39 1011.1
20260504000959 55 312 0.9 0.9 0.00 0.00 0.00 39 1011.1
20260504000457 55 306 0.9 0.9 0.00 0.00 0.00 38 1011.2
20260503235954 56 311 0.9 1.7 0.00 0.00 0.00 37 1011.2
20260503235451 57 305 0.9 0.9 0.00 0.00 0.00 36 1010.8
20260503234948 57 318 0.9 0.9 0.00 0.00 0.00 34 1011.0
20260503234446 57 295 0.9 1.7 0.00 0.00 0.00 33 1010.8
20260503233944 58 315 0.9 1.7 0.00 0.00 0.00 34 1011.0
20260503233440 58 296 1.7 2.6 0.00 0.00 0.00 32 1010.8
20260503232936 58 312 1.7 3.5 0.00 0.00 0.00 33 1010.9
20260503232433 58 303 1.7 3.5 0.00 0.00 0.00 33 1010.8
20260503231932 59 309 0.9 1.7 0.00 0.00 0.00 33 1010.8
20260503231429 59 332 1.7 1.7 0.00 0.00 0.00 32 1011.1
20260503230925 59 298 1.7 1.7 0.00 0.00 0.00 32 1010.9
20260503230421 59 292 1.7 2.6 0.00 0.00 0.00 32 1010.9
20260503225920 59 325 1.7 1.7 0.00 0.00 0.00 32 1010.8
20260503225416 59 334 1.7 2.6 0.00 0.00 0.00 33 1010.8
20260503224911 59 294 3.5 5.2 0.00 0.00 0.00 30 1010.7
20260503224409 59 323 1.7 2.6 0.00 0.00 0.00 32 1010.7
20260503223906 59 334 1.7 2.6 0.00 0.00 0.00 30 1011.0
20260503223404 59 304 1.7 3.5 0.00 0.00 0.00 30 1010.7
20260503222859 60 323 3.5 7.0 0.00 0.00 0.00 30 1010.7
20260503222358 60 285 2.6 3.5 0.00 0.00 0.00 31 1010.7
20260503221856 60 322 0.9 3.5 0.00 0.00 0.00 30 1010.8
20260503221354 60 342 3.5 3.5 0.00 0.00 0.00 31 1010.7
20260503220850 60 321 1.7 1.7 0.00 0.00 0.00 32 1010.8
20260503220347 59 338 1.7 3.5 0.00 0.00 0.00 31 1010.7
20260503215844 60 293 2.6 3.5 0.00 0.00 0.00 32 1010.9
20260503215341 60 302 2.6 6.1 0.00 0.00 0.00 29 1010.8
20260503214838 60 319 2.6 3.5 0.00 0.00 0.00 31 1010.7
20260503214336 60 292 1.7 2.6 0.00 0.00 0.00 31 1010.8
20260503213833 60 318 2.6 3.5 0.00 0.00 0.00 30 1010.7
20260503213331 60 279 3.5 7.0 0.00 0.00 0.00 29 1010.8
20260503212827 59 358 2.6 5.2 0.00 0.00 0.00 32 1011.0
20260503212325 59 336 1.7 5.2 0.00 0.00 0.00 31 1010.8
20260503211822 59 299 2.6 3.5 0.00 0.00 0.00 30 1010.9
20260503211319 59 316 2.6 2.6 0.00 0.00 0.00 30 1010.9
20260503210819 60 282 3.5 6.1 0.00 0.00 0.00 31 1010.6
20260503210317 60 329 2.6 5.2 0.00 0.00 0.00 31 1010.9
20260503205811 58 355 2.6 6.1 0.00 0.00 0.00 30 1010.6
20260503205308 58 334 0.9 2.6 0.00 0.00 0.00 31 1010.7
20260503204805 59 334 1.7 3.5 0.00 0.00 0.00 31 1010.9
20260503204303 59 337 0.9 7.0 0.00 0.00 0.00 31 1010.8
20260503203800 59 17 4.3 6.1 0.00 0.00 0.00 28 1010.9
20260503203257 59 351 2.6 7.8 0.00 0.00 0.00 30 1010.7
20260503202754 59 335 1.7 2.6 0.00 0.00 0.00 29 1010.9
20260503202252 58 306 1.7 3.5 0.00 0.00 0.00 31 1010.8
20260503201749 58 313 2.6 5.2 0.00 0.00 0.00 30 1010.9
20260503201247 59 285 2.6 5.2 0.00 0.00 0.00 30 1011.1
20260503200743 59 291 3.5 5.2 0.00 0.00 0.00 28 1011.1
20260503200239 59 298 2.6 6.1 0.00 0.00 0.00 34 1011.0
20260503195736 59 290 2.6 7.0 0.00 0.00 0.00 29 1011.2
20260503195233 59 283 2.6 5.2 0.00 0.00 0.00 30 1011.2
20260503194731 60 346 3.5 7.8 0.00 0.00 0.00 30 1011.1
20260503194226 59 334 3.5 3.5 0.00 0.00 0.00 32 1011.3
20260503193723 59 314 2.6 3.5 0.00 0.00 0.00 31 1011.5
20260503193219 59 350 1.7 3.5 0.00 0.00 0.00 30 1011.5
20260503192715 59 325 3.5 7.0 0.00 0.00 0.00 30 1011.7
20260503192210 59 325 3.5 5.2 0.00 0.00 0.00 32 1011.4
20260503191707 59 305 2.6 3.5 0.00 0.00 0.00 31 1011.6
20260503191204 58 335 2.6 6.1 0.00 0.00 0.00 30 1011.7
20260503190701 58 331 3.5 7.8 0.00 0.00 0.00 32 1011.8
20260503190158 58 319 5.2 7.0 0.00 0.00 0.00 31 1011.6
20260503185655 56 313 1.7 3.5 0.00 0.00 0.00 34 1011.8
20260503185150 55 322 2.6 3.5 0.00 0.00 0.00 34 1011.9
20260503184645 56 312 4.3 6.1 0.00 0.00 0.00 32 1012.1
20260503184142 57 322 3.5 7.0 0.00 0.00 0.00 34 1012.2
20260503183638 57 307 2.6 5.2 0.00 0.00 0.00 33 1012.1
20260503183136 56 332 2.6 6.1 0.00 0.00 0.00 36 1012.2
20260503182634 57 293 5.2 7.0 0.00 0.00 0.00 34 1011.9
20260503182132 57 311 0.9 1.7 0.00 0.00 0.00 33 1012.1
20260503181628 56 292 1.7 5.2 0.00 0.00 0.00 38 1012.3
20260503181125 56 276 3.5 5.2 0.00 0.00 0.00 33 1012.2
20260503180622 55 264 3.5 6.1 0.00 0.00 0.00 32 1012.2
20260503180120 55 283 3.5 11.3 0.00 0.00 0.00 34 1012.2
20260503175617 56 326 3.5 5.2 0.00 0.00 0.00 32 1012.3
20260503175114 55 352 2.6 6.1 0.00 0.00 0.00 33 1012.2
20260503174611 55 312 1.7 3.5 0.00 0.00 0.00 33 1012.5
20260503174108 56 336 3.5 8.7 0.00 0.00 0.00 34 1012.3
20260503173602 56 320 2.6 6.1 0.00 0.00 0.00 36 1012.2
20260503173059 56 325 1.7 5.2 0.00 0.00 0.00 32 1012.4
20260503172556 56 3 3.5 6.1 0.00 0.00 0.00 37 1012.5
20260503172054 55 272 3.5 6.1 0.00 0.00 0.00 33 1012.4
20260503171550 56 330 4.3 6.1 0.00 0.00 0.00 33 1012.8
20260503171047 55 340 0.9 2.6 0.00 0.00 0.00 36 1012.4
20260503170543 56 329 3.5 5.2 0.00 0.00 0.00 33 1012.7
20260503150936 51 334 3.5 6.1 0.00 0.00 0.00 39 1013.1
20260503150433 51 299 2.6 6.1 0.00 0.00 0.00 39 1013.1
20260503131326 48 329 0.9 3.5 0.00 0.00 0.00 52 1013.2
20260503130823 48 322 1.7 7.0 0.00 0.00 0.00 51 1013.4
20260503130321 47 19 3.5 6.1 0.00 0.00 0.00 51 1013.3
20260503110714 44 334 0.0 0.9 0.00 0.00 0.00 62 1012.3
20260503110211 44 343 0.9 0.9 0.00 0.00 0.00 62 1012.3
20260503100138 43 331 0.9 1.7 0.00 0.00 0.00 66 1011.3